Location: Ay?beleni
(36.6500°N, 30.3000°E)
Time: 12:55:36
(UTC+00:00)

Cosmos 1954 Rocket - Visible Passes

Search period start: 06 August 2020 00:00
Search period end: 16 August 2020 00:00
Orbit: 751 x 782 km, 74.0° (Epoch: 05 August)

Date Brightness Start Highest point End Pass type
(mag) Time Alt. Az. Time Alt. Az. Time Alt. Az.
06 Aug 4.0 19:42:26 80° WSW 19:42:36 82° WNW 19:47:58 10° NNE visible
07 Aug 4.0 19:04:41 53° SE 19:05:14 56° ESE 19:10:27 10° NNE visible
07 Aug 6.5 20:44:50 12° W 20:47:38 17° WNW 20:51:04 10° NNW visible
08 Aug 4.8 18:26:42 28° SE 18:27:58 31° E 18:32:36 10° NE visible
08 Aug 5.8 20:06:50 17° WSW 20:09:56 28° WNW 20:14:31 10° N visible
09 Aug 5.5 17:48:18 13° SE 17:50:48 17° E 17:54:12 10° NE visible
09 Aug 4.8 19:28:23 17° SW 19:32:21 49° WNW 19:37:31 10° N visible
10 Aug 4.0 18:49:34 10° SSW 18:54:53 87° WNW 19:00:14 10° NNE visible
10 Aug 7.0 20:36:49 10° WNW 20:37:41 10° NW 20:38:34 10° NW visible
11 Aug 4.1 18:12:23 10° S 18:17:31 52° ESE 18:22:41 10° NNE visible
11 Aug 6.6 19:56:17 10° WSW 19:59:52 18° WNW 20:03:28 10° NNW visible
12 Aug 4.8 17:35:44 10° SSE 17:40:15 29° E 17:44:48 10° NE visible
12 Aug 5.8 19:17:32 10° SW 19:22:10 30° WNW 19:26:51 10° N visible
13 Aug 4.8 18:39:26 10° SW 18:44:36 52° WNW 18:49:49 10° N visible
14 Aug 4.0 18:01:50 10° SSW 18:07:09 88° ESE 18:12:30 10° NNE visible
14 Aug 7.2 19:48:24 10° WNW 19:49:55 11° NW 19:51:24 10° NW visible
15 Aug 4.2 17:24:42 10° S 17:29:48 49° ESE 17:34:55 10° NNE visible
15 Aug 6.7 19:08:21 10° WSW 19:12:06 19° WNW 19:15:51 10° NNW visible
